Year,Month,Day,Hour,Minute,Value (Times are PST for temperature in C)
2014,07,09,16,13,23.70
2014,07,09,16,14,23.70
2014,07,09,16,15,23.70
2014,07,09,16,16,23.80
2014,07,09,16,17,23.80
2014,07,09,16,18,23.80
2014,07,09,16,19,23.90
2014,07,09,16,20,24.00
2014,07,09,16,21,24.00
2014,07,09,16,22,24.10
2014,07,09,16,23,24.00
2014,07,09,16,24,24.00
2014,07,09,16,25,24.00
2014,07,09,16,26,24.00
2014,07,09,16,27,23.90
2014,07,09,16,28,23.90
2014,07,09,16,29,23.90
2014,07,09,16,30,23.90
2014,07,09,16,31,24.00
2014,07,09,16,32,24.00
2014,07,09,16,33,23.90
2014,07,09,16,34,23.80
2014,07,09,16,35,23.70
2014,07,09,16,36,23.70
2014,07,09,16,37,23.70
2014,07,09,16,38,23.70
2014,07,09,16,39,23.60
2014,07,09,16,40,23.60
2014,07,09,16,41,23.50
2014,07,09,16,42,23.40
2014,07,09,16,43,23.30
2014,07,09,16,44,23.30
2014,07,09,16,45,23.30
2014,07,09,16,46,23.30
2014,07,09,16,47,23.40
2014,07,09,16,48,23.50
2014,07,09,16,49,23.60
2014,07,09,16,50,23.60
2014,07,09,16,51,23.70
2014,07,09,16,52,23.80
2014,07,09,16,53,23.80
2014,07,09,16,54,23.90
2014,07,09,16,55,23.80
2014,07,09,16,56,23.70
2014,07,09,16,57,23.60
2014,07,09,16,58,23.50
2014,07,09,16,59,23.40
2014,07,09,17,00,23.50
2014,07,09,17,01,23.60
2014,07,09,17,02,23.60
2014,07,09,17,03,23.60
2014,07,09,17,04,23.60
2014,07,09,17,05,23.70
2014,07,09,17,06,23.60
2014,07,09,17,07,23.60
2014,07,09,17,08,23.50
2014,07,09,17,09,23.50
2014,07,09,17,10,23.40
2014,07,09,17,11,23.40
2014,07,09,17,12,23.30
2014,07,09,17,13,23.20
2014,07,09,17,14,23.10
2014,07,09,17,15,23.10
2014,07,09,17,16,23.20
2014,07,09,17,17,23.20
2014,07,09,17,18,23.20
2014,07,09,17,19,23.20
2014,07,09,17,20,23.20
2014,07,09,17,21,23.20
2014,07,09,17,22,23.10
2014,07,09,17,23,23.00
2014,07,09,17,24,23.00
2014,07,09,17,25,22.90
2014,07,09,17,26,22.90
2014,07,09,17,27,23.00
2014,07,09,17,28,23.10
2014,07,09,17,29,23.10
2014,07,09,17,30,23.10
2014,07,09,17,31,23.10
2014,07,09,17,32,23.10
2014,07,09,17,33,23.10
2014,07,09,17,34,23.10
2014,07,09,17,35,23.10
2014,07,09,17,36,23.10
2014,07,09,17,37,23.20
2014,07,09,17,38,23.20
2014,07,09,17,39,23.20
2014,07,09,17,40,23.30
2014,07,09,17,41,23.30
2014,07,09,17,42,23.30
2014,07,09,17,43,23.40
2014,07,09,17,44,23.40
2014,07,09,17,45,23.40
2014,07,09,17,46,23.30
2014,07,09,17,47,23.30
2014,07,09,17,48,23.20
2014,07,09,17,49,23.20
2014,07,09,17,50,23.20
2014,07,09,17,51,23.20
2014,07,09,17,52,23.20
2014,07,09,17,53,23.30
2014,07,09,17,54,23.30
2014,07,09,17,55,23.40
2014,07,09,17,56,23.40
2014,07,09,17,57,23.40
2014,07,09,17,58,23.50
2014,07,09,17,59,23.50
2014,07,09,18,00,23.60
2014,07,09,18,01,23.60
2014,07,09,18,02,23.60
2014,07,09,18,03,23.50
2014,07,09,18,04,23.40
2014,07,09,18,05,23.40
2014,07,09,18,06,23.30
2014,07,09,18,07,23.30
2014,07,09,18,08,23.20
2014,07,09,18,09,23.20
2014,07,09,18,10,23.20
2014,07,09,18,11,23.20
2014,07,09,18,12,23.20
2014,07,09,18,13,23.30
2014,07,09,18,14,23.30
2014,07,09,18,15,23.40
2014,07,09,18,16,23.40
2014,07,09,18,17,23.50
2014,07,09,18,18,23.50
2014,07,09,18,19,23.50
2014,07,09,18,20,23.40
2014,07,09,18,21,23.40
2014,07,09,18,22,23.30
2014,07,09,18,23,23.30
2014,07,09,18,24,23.40
2014,07,09,18,25,23.40
2014,07,09,18,26,23.40
2014,07,09,18,27,23.40
2014,07,09,18,28,23.40
2014,07,09,18,29,23.40
2014,07,09,18,30,23.50
2014,07,09,18,31,23.40
2014,07,09,18,32,23.40
2014,07,09,18,33,23.40
2014,07,09,18,34,23.50
2014,07,09,18,35,23.60
2014,07,09,18,36,23.50
2014,07,09,18,37,23.50
2014,07,09,18,38,23.50
2014,07,09,18,39,23.50
2014,07,09,18,40,23.60
2014,07,09,18,41,23.60
2014,07,09,18,42,23.70
2014,07,09,18,43,23.70
2014,07,09,18,44,23.80
2014,07,09,18,45,23.80
2014,07,09,18,46,23.80
2014,07,09,18,47,23.90
2014,07,09,18,48,23.80
2014,07,09,18,49,23.80
2014,07,09,18,50,23.90
2014,07,09,18,51,23.90
2014,07,09,18,52,23.90
2014,07,09,18,53,23.90
2014,07,09,18,54,23.90
2014,07,09,18,55,23.90
2014,07,09,18,56,23.80
2014,07,09,18,57,23.80
2014,07,09,18,58,23.80
2014,07,09,18,59,23.70
2014,07,09,19,00,23.70
2014,07,09,19,01,23.70
2014,07,09,19,02,23.70
2014,07,09,19,03,23.70
2014,07,09,19,04,23.80
2014,07,09,19,05,23.80
2014,07,09,19,06,23.80
2014,07,09,19,07,23.80
2014,07,09,19,08,23.80
2014,07,09,19,09,23.80
2014,07,09,19,10,23.80
2014,07,09,19,11,23.70
2014,07,09,19,12,23.70
2014,07,09,19,13,23.70
2014,07,09,19,14,23.70
2014,07,09,19,15,23.80
2014,07,09,19,16,23.80
2014,07,09,19,17,23.80
2014,07,09,19,18,23.80
2014,07,09,19,19,23.70
2014,07,09,19,20,23.70
2014,07,09,19,21,23.60
2014,07,09,19,22,23.60
2014,07,09,19,23,23.70
2014,07,09,19,24,23.70
2014,07,09,19,25,23.70
2014,07,09,19,26,23.70
2014,07,09,19,27,23.60
2014,07,09,19,28,23.50
2014,07,09,19,29,23.40
2014,07,09,19,30,23.40
2014,07,09,19,31,23.30
2014,07,09,19,32,23.30
2014,07,09,19,33,23.30
2014,07,09,19,34,23.30
2014,07,09,19,35,23.30
2014,07,09,19,36,23.30
2014,07,09,19,37,23.30
2014,07,09,19,38,23.30
2014,07,09,19,39,23.30
2014,07,09,19,40,23.30
2014,07,09,19,41,23.30
2014,07,09,19,42,23.20
2014,07,09,19,43,23.10
2014,07,09,19,44,23.10
2014,07,09,19,45,23.00
2014,07,09,19,46,23.00
2014,07,09,19,47,22.90
2014,07,09,19,48,22.80
2014,07,09,19,49,22.70
2014,07,09,19,50,22.70
2014,07,09,19,51,22.70
2014,07,09,19,52,22.70
2014,07,09,19,53,22.70
2014,07,09,19,54,22.70
2014,07,09,19,55,22.70
2014,07,09,19,56,22.70
2014,07,09,19,57,22.70
2014,07,09,19,58,22.70
2014,07,09,19,59,22.70
2014,07,09,20,00,22.60
2014,07,09,20,01,22.60
2014,07,09,20,02,22.50
2014,07,09,20,03,22.50
2014,07,09,20,04,22.40
2014,07,09,20,05,22.40
2014,07,09,20,06,22.50
2014,07,09,20,07,22.50
2014,07,09,20,08,22.50
2014,07,09,20,09,22.40
2014,07,09,20,10,22.40
2014,07,09,20,11,22.40
2014,07,09,20,12,22.30
2014,07,09,20,13,22.30
2014,07,09,20,14,22.20
2014,07,09,20,15,22.20
2014,07,09,20,16,22.10
2014,07,09,20,17,22.10
2014,07,09,20,18,22.10
2014,07,09,20,19,22.10
2014,07,09,20,20,22.10
2014,07,09,20,21,22.10
2014,07,09,20,22,22.10
2014,07,09,20,23,22.10
2014,07,09,20,24,22.10
2014,07,09,20,25,22.10
2014,07,09,20,26,22.10
2014,07,09,20,27,22.00
2014,07,09,20,28,22.00
2014,07,09,20,29,21.90
2014,07,09,20,30,21.90
2014,07,09,20,31,21.90
2014,07,09,20,32,21.90
2014,07,09,20,33,21.90
2014,07,09,20,34,21.80
2014,07,09,20,35,21.80
2014,07,09,20,36,21.70
2014,07,09,20,37,21.70
2014,07,09,20,38,21.70
2014,07,09,20,39,21.70
2014,07,09,20,40,21.60
2014,07,09,20,41,21.60
2014,07,09,20,42,21.60
2014,07,09,20,43,21.60
2014,07,09,20,44,21.50
2014,07,09,20,45,21.50
2014,07,09,20,46,21.50
2014,07,09,20,47,21.50
2014,07,09,20,48,21.40
2014,07,09,20,49,21.40
2014,07,09,20,50,21.40
2014,07,09,20,51,21.40
2014,07,09,20,52,21.40
2014,07,09,20,53,21.30
2014,07,09,20,54,21.30
2014,07,09,20,55,21.30
2014,07,09,20,56,21.30
2014,07,09,20,57,21.20
2014,07,09,20,58,21.20
2014,07,09,20,59,21.10
2014,07,09,21,00,21.10
2014,07,09,21,01,21.10
2014,07,09,21,02,21.10
2014,07,09,21,03,21.00
2014,07,09,21,04,21.00
2014,07,09,21,05,21.00
2014,07,09,21,06,20.90
2014,07,09,21,07,20.90
2014,07,09,21,08,20.90
2014,07,09,21,09,20.80
2014,07,09,21,10,20.80
2014,07,09,21,11,20.80
2014,07,09,21,12,20.80
2014,07,09,21,13,20.70
2014,07,09,21,14,20.70
2014,07,09,21,15,20.70
2014,07,09,21,16,20.70
2014,07,09,21,17,20.70
2014,07,09,21,18,20.60
2014,07,09,21,19,20.60
2014,07,09,21,20,20.60
2014,07,09,21,21,20.50
2014,07,09,21,22,20.50
2014,07,09,21,23,20.40
2014,07,09,21,24,20.40
2014,07,09,21,25,20.40
2014,07,09,21,26,20.40
2014,07,09,21,27,20.30
2014,07,09,21,28,20.30
2014,07,09,21,29,20.30
2014,07,09,21,30,20.30
2014,07,09,21,31,20.30
2014,07,09,21,32,20.20
2014,07,09,21,33,20.20
2014,07,09,21,34,20.20
2014,07,09,21,35,20.20
2014,07,09,21,36,20.10
2014,07,09,21,37,20.10
2014,07,09,21,38,20.10
2014,07,09,21,39,20.10
2014,07,09,21,40,20.00
2014,07,09,21,41,20.00
2014,07,09,21,42,20.00
2014,07,09,21,43,19.90
2014,07,09,21,44,19.90
2014,07,09,21,45,19.90
2014,07,09,21,46,19.90
2014,07,09,21,47,19.80
2014,07,09,21,48,19.80
2014,07,09,21,49,19.80
2014,07,09,21,50,19.80
2014,07,09,21,51,19.80
2014,07,09,21,52,19.70
2014,07,09,21,53,19.70
2014,07,09,21,54,19.70
2014,07,09,21,55,19.70
2014,07,09,21,56,19.60
2014,07,09,21,57,19.60
2014,07,09,21,58,19.60
2014,07,09,21,59,19.50
2014,07,09,22,00,19.40
2014,07,09,22,01,19.40
2014,07,09,22,02,19.40
2014,07,09,22,03,19.30
2014,07,09,22,04,19.30
2014,07,09,22,05,19.30
2014,07,09,22,06,19.30
2014,07,09,22,07,19.30
2014,07,09,22,08,19.20
2014,07,09,22,09,19.20
2014,07,09,22,10,19.20
2014,07,09,22,11,19.20
2014,07,09,22,12,19.10
2014,07,09,22,13,19.10
2014,07,09,22,14,19.10
2014,07,09,22,15,19.00
2014,07,09,22,16,19.00
2014,07,09,22,17,18.90
2014,07,09,22,18,18.90
2014,07,09,22,19,18.90
2014,07,09,22,20,18.90
2014,07,09,22,21,18.90
2014,07,09,22,22,18.90
2014,07,09,22,23,18.80
2014,07,09,22,24,18.80
2014,07,09,22,25,18.80
2014,07,09,22,26,18.80
2014,07,09,22,27,18.80
2014,07,09,22,28,18.80
2014,07,09,22,29,18.80
2014,07,09,22,30,18.80
2014,07,09,22,31,18.80
2014,07,09,22,32,18.70
2014,07,09,22,33,18.70
2014,07,09,22,34,18.70
2014,07,09,22,35,18.70
2014,07,09,22,36,18.70
2014,07,09,22,37,18.70
2014,07,09,22,38,18.70
2014,07,09,22,39,18.70
2014,07,09,22,40,18.70
2014,07,09,22,41,18.70
2014,07,09,22,42,18.70
2014,07,09,22,43,18.70
2014,07,09,22,44,18.70
2014,07,09,22,45,18.70
2014,07,09,22,46,18.70
2014,07,09,22,47,18.70
2014,07,09,22,48,18.70
2014,07,09,22,49,18.70
2014,07,09,22,50,18.70
2014,07,09,22,51,18.70
2014,07,09,22,52,18.70
2014,07,09,22,53,18.70
2014,07,09,22,54,18.70
2014,07,09,22,55,18.70
2014,07,09,22,56,18.70
2014,07,09,22,57,18.70
2014,07,09,22,58,18.70
2014,07,09,22,59,18.70
2014,07,09,23,00,18.70
2014,07,09,23,01,18.70
2014,07,09,23,02,18.70
2014,07,09,23,03,18.70
2014,07,09,23,04,18.70
2014,07,09,23,05,18.70
2014,07,09,23,06,18.60
2014,07,09,23,07,18.60
2014,07,09,23,08,18.60
2014,07,09,23,09,18.60
2014,07,09,23,10,18.60
2014,07,09,23,11,18.60
2014,07,09,23,12,18.60
2014,07,09,23,13,18.50
2014,07,09,23,14,18.50
2014,07,09,23,15,18.50
2014,07,09,23,16,18.50
2014,07,09,23,17,18.40
2014,07,09,23,18,18.40
2014,07,09,23,19,18.40
2014,07,09,23,20,18.40
2014,07,09,23,21,18.40
2014,07,09,23,22,18.40
2014,07,09,23,23,18.40
2014,07,09,23,24,18.40
2014,07,09,23,25,18.40
2014,07,09,23,26,18.40
2014,07,09,23,27,18.40
2014,07,09,23,28,18.40
2014,07,09,23,29,18.40
2014,07,09,23,30,18.40
2014,07,09,23,31,18.40
2014,07,09,23,32,18.30
2014,07,09,23,33,18.30
2014,07,09,23,34,18.30
2014,07,09,23,35,18.30
2014,07,09,23,36,18.30
2014,07,09,23,37,18.30
2014,07,09,23,38,18.30
2014,07,09,23,39,18.30
2014,07,09,23,40,18.30
2014,07,09,23,41,18.30
2014,07,09,23,42,18.30
2014,07,09,23,43,18.30
2014,07,09,23,44,18.20
2014,07,09,23,45,18.20
2014,07,09,23,46,18.20
2014,07,09,23,47,18.20
2014,07,09,23,48,18.20
2014,07,09,23,49,18.20
2014,07,09,23,50,18.10
2014,07,09,23,51,18.10
2014,07,09,23,52,18.10
2014,07,09,23,53,18.10
2014,07,09,23,54,18.10
2014,07,09,23,55,18.00
2014,07,09,23,56,18.00
2014,07,09,23,57,18.00
2014,07,09,23,58,18.00
2014,07,09,23,59,17.90
